| time (UTC) | temp F | wind direction | speed MPH | gust MPH | rain 1hr in | rain 24hr in | rain mn in | humidity % | barometer mb |
| 20260510130428 | 59 | 16 | 4.0 | 12.0 | 0.00 | 0.00 | 0.00 | 87 | 999.7 |
| 20260510125412 | 58 | 13 | 3.0 | 12.0 | 0.00 | 0.00 | 0.00 | 89 | 999.7 |
| 20260510124911 | 58 | 19 | 2.0 | 12.0 | 0.00 | 0.00 | 0.00 | 89 | 1003.3 |
| 20260510124411 | 58 | 23 | 2.0 | 12.0 | 0.00 | 0.00 | 0.00 | 89 | 993.1 |
| 20260510123911 | 58 | 18 | 2.0 | 12.0 | 0.00 | 0.00 | 0.00 | 89 | 927.0 |
| 20260510123411 | 58 | 345 | 3.0 | 12.0 | 0.00 | 0.00 | 0.00 | 89 | 942.7 |
| 20260510122911 | 58 | 356 | 2.0 | 12.0 | 0.00 | 0.00 | 0.00 | 89 | 945.2 |
| 20260510122411 | 58 | 9 | 3.0 | 12.0 | 0.00 | 0.00 | 0.00 | 89 | 940.5 |
| 20260510121911 | 58 | 9 | 3.0 | 12.0 | 0.00 | 0.00 | 0.00 | 89 | 965.5 |
| 20260510120856 | 57 | 108 | 3.0 | 12.0 | 0.00 | 0.00 | 0.00 | 89 | 977.4 |
| 20260510120356 | 57 | 100 | 3.0 | 12.0 | 0.00 | 0.00 | 0.00 | 89 | 989.9 |
| 20260510115855 | 57 | 90 | 3.0 | 12.0 | 0.00 | 0.00 | 0.00 | 89 | 989.6 |
| 20260510115354 | 57 | 85 | 3.0 | 12.0 | 0.00 | 0.00 | 0.00 | 89 | 984.0 |
| 20260510114338 | 57 | 118 | 2.0 | 12.0 | 0.00 | 0.00 | 0.00 | 90 | 968.5 |
| 20260510113322 | 57 | 87 | 3.0 | 12.0 | 0.00 | 0.00 | 0.00 | 89 | 968.4 |
| 20260510112821 | 57 | 71 | 3.0 | 12.0 | 0.00 | 0.00 | 0.00 | 89 | 969.0 |
| 20260510112320 | 57 | 88 | 2.0 | 12.0 | 0.00 | 0.00 | 0.00 | 89 | 945.7 |
| 20260510111819 | 57 | 107 | 2.0 | 12.0 | 0.00 | 0.00 | 0.00 | 88 | 938.4 |
| 20260510111319 | 57 | 60 | 2.0 | 12.0 | 0.00 | 0.00 | 0.00 | 88 | 939.8 |
| 20260510110818 | 57 | 72 | 4.0 | 12.0 | 0.00 | 0.00 | 0.00 | 89 | 939.9 |
| 20260510110317 | 57 | 73 | 4.0 | 12.0 | 0.00 | 0.00 | 0.00 | 88 | 939.6 |
| 20260510105300 | 57 | 67 | 5.0 | 12.0 | 0.00 | 0.00 | 0.00 | 88 | 938.1 |
| 20260510104759 | 57 | 63 | 5.0 | 12.0 | 0.00 | 0.00 | 0.00 | 88 | 938.3 |
| 20260510104259 | 57 | 59 | 5.0 | 12.0 | 0.00 | 0.00 | 0.00 | 88 | 938.6 |
| 20260510103758 | 57 | 66 | 6.0 | 12.0 | 0.00 | 0.00 | 0.00 | 89 | 937.9 |
| 20260510103257 | 57 | 72 | 4.0 | 12.0 | 0.00 | 0.00 | 0.00 | 89 | 937.7 |
| 20260510102756 | 57 | 59 | 3.0 | 12.0 | 0.00 | 0.00 | 0.00 | 88 | 938.0 |
| 20260510102256 | 57 | 48 | 3.0 | 12.0 | 0.00 | 0.00 | 0.00 | 88 | 939.4 |
| 20260510101755 | 57 | 47 | 4.0 | 12.0 | 0.00 | 0.00 | 0.00 | 88 | 939.1 |
| 20260510101254 | 57 | 50 | 3.0 | 12.0 | 0.00 | 0.00 | 0.00 | 88 | 937.3 |
| 20260510100753 | 57 | 37 | 4.0 | 12.0 | 0.00 | 0.00 | 0.00 | 88 | 942.0 |
| 20260510100252 | 57 | 36 | 5.0 | 12.0 | 0.00 | 0.00 | 0.00 | 88 | 946.9 |
| 20260510095236 | 57 | 50 | 4.0 | 12.0 | 0.00 | 0.00 | 0.00 | 88 | 949.5 |
| 20260510094736 | 57 | 38 | 4.0 | 12.0 | 0.00 | 0.00 | 0.00 | 88 | 950.6 |
| 20260510094235 | 58 | 37 | 3.0 | 12.0 | 0.00 | 0.00 | 0.00 | 87 | 951.5 |
| 20260510093735 | 58 | 58 | 2.0 | 12.0 | 0.00 | 0.00 | 0.00 | 86 | 951.8 |
| 20260510093234 | 58 | 44 | 2.0 | 12.0 | 0.00 | 0.00 | 0.00 | 86 | 952.8 |
| 20260510092733 | 58 | 30 | 3.0 | 12.0 | 0.00 | 0.00 | 0.00 | 85 | 954.1 |
| 20260510092232 | 59 | 31 | 5.0 | 12.0 | 0.00 | 0.00 | 0.00 | 85 | 955.1 |
| 20260510091732 | 59 | 25 | 6.0 | 12.0 | 0.00 | 0.00 | 0.00 | 85 | 954.4 |
| 20260510091231 | 59 | 21 | 5.0 | 12.0 | 0.00 | 0.00 | 0.00 | 85 | 955.3 |
| 20260510090730 | 59 | 24 | 4.0 | 12.0 | 0.00 | 0.00 | 0.00 | 85 | 955.9 |
| 20260510090229 | 59 | 8 | 5.0 | 12.0 | 0.00 | 0.00 | 0.00 | 85 | 955.6 |
| 20260510085729 | 59 | 358 | 5.0 | 12.0 | 0.00 | 0.00 | 0.00 | 85 | 956.0 |
| 20260510085228 | 59 | 359 | 6.0 | 12.0 | 0.00 | 0.00 | 0.00 | 85 | 957.3 |
| 20260510084727 | 59 | 3 | 7.0 | 12.0 | 0.00 | 0.00 | 0.00 | 86 | 958.8 |
| 20260510084226 | 59 | 359 | 6.0 | 12.0 | 0.00 | 0.00 | 0.00 | 85 | 960.1 |
| 20260510083210 | 59 | 1 | 5.0 | 12.0 | 0.00 | 0.00 | 0.00 | 86 | 961.0 |
| 20260510082154 | 59 | 14 | 6.0 | 12.0 | 0.00 | 0.00 | 0.00 | 86 | 961.8 |
| 20260510081653 | 58 | 20 | 6.0 | 12.0 | 0.00 | 0.00 | 0.00 | 87 | 962.9 |
| 20260510081154 | 58 | 31 | 4.0 | 12.0 | 0.00 | 0.00 | 0.00 | 88 | 963.8 |
| 20260510080137 | 58 | 51 | 3.0 | 12.0 | 0.00 | 0.00 | 0.00 | 87 | 972.0 |
| 20260510075637 | 58 | 41 | 3.0 | 12.0 | 0.00 | 0.00 | 0.00 | 86 | 972.4 |
| 20260510075136 | 58 | 40 | 2.0 | 12.0 | 0.00 | 0.00 | 0.00 | 85 | 973.1 |
| 20260510074636 | 59 | 35 | 3.0 | 12.0 | 0.00 | 0.00 | 0.00 | 85 | 973.8 |
| 20260510074136 | 59 | 24 | 5.0 | 12.0 | 0.00 | 0.00 | 0.00 | 85 | 978.3 |
| 20260510073120 | 59 | 20 | 5.0 | 12.0 | 0.00 | 0.00 | 0.00 | 85 | 969.4 |
| 20260510072620 | 59 | 19 | 5.0 | 12.0 | 0.00 | 0.00 | 0.00 | 85 | 967.8 |
| 20260510072120 | 59 | 37 | 4.0 | 12.0 | 0.00 | 0.00 | 0.00 | 85 | 966.8 |
| 20260510071618 | 59 | 37 | 5.0 | 12.0 | 0.00 | 0.00 | 0.00 | 84 | 959.3 |
| 20260510070603 | 59 | 45 | 4.0 | 12.0 | 0.00 | 0.00 | 0.00 | 84 | 961.6 |
| 20260510065548 | 60 | 28 | 4.0 | 12.0 | 0.00 | 0.00 | 0.00 | 83 | 946.0 |
| 20260510064532 | 60 | 23 | 4.0 | 12.0 | 0.00 | 0.00 | 0.00 | 83 | 941.6 |
| 20260510063516 | 60 | 21 | 5.0 | 12.0 | 0.00 | 0.00 | 0.00 | 83 | 944.1 |
| 20260510063016 | 60 | 26 | 4.0 | 12.0 | 0.00 | 0.00 | 0.00 | 82 | 945.2 |
| 20260510062000 | 60 | 33 | 7.0 | 12.0 | 0.00 | 0.00 | 0.00 | 82 | 984.2 |
| 20260510061501 | 60 | 57 | 5.0 | 12.0 | 0.00 | 0.00 | 0.00 | 82 | 989.0 |
| 20260510061001 | 61 | 45 | 5.0 | 12.0 | 0.00 | 0.00 | 0.00 | 81 | 989.1 |
| 20260510060500 | 61 | 73 | 3.0 | 12.0 | 0.00 | 0.00 | 0.00 | 81 | 988.9 |
| 20260510060000 | 61 | 53 | 2.0 | 12.0 | 0.00 | 0.00 | 0.00 | 81 | 988.7 |
| 20260510055500 | 61 | 48 | 6.0 | 13.0 | 0.00 | 0.00 | 0.00 | 81 | 981.6 |
| 20260510055000 | 61 | 40 | 6.0 | 13.0 | 0.00 | 0.00 | 0.00 | 81 | 956.3 |
| 20260510054500 | 61 | 16 | 5.0 | 13.0 | 0.00 | 0.00 | 0.00 | 81 | 954.1 |
| 20260510053959 | 61 | 26 | 5.0 | 13.0 | 0.00 | 0.00 | 0.00 | 81 | 953.9 |
| 20260510053458 | 61 | 356 | 4.0 | 13.0 | 0.00 | 0.00 | 0.00 | 81 | 952.6 |
| 20260510052956 | 61 | 10 | 4.0 | 13.0 | 0.00 | 0.00 | 0.00 | 80 | 951.6 |
| 20260510052456 | 61 | 21 | 5.0 | 13.0 | 0.00 | 0.00 | 0.00 | 80 | 957.2 |
| 20260510051954 | 61 | 8 | 6.0 | 13.0 | 0.00 | 0.00 | 0.00 | 80 | 939.1 |
| 20260510051454 | 62 | 40 | 6.0 | 13.0 | 0.00 | 0.00 | 0.00 | 80 | 908.3 |
| 20260510050953 | 62 | 0 | 6.0 | 13.0 | 0.00 | 0.00 | 0.00 | 79 | 909.2 |
| 20260510050451 | 62 | 9 | 6.0 | 13.0 | 0.00 | 0.00 | 0.00 | 79 | 910.4 |
| 20260510045950 | 62 | 358 | 7.0 | 15.0 | 0.00 | 0.00 | 0.00 | 79 | 912.1 |
| 20260510045450 | 62 | 12 | 6.0 | 15.0 | 0.00 | 0.00 | 0.00 | 79 | 911.5 |
| 20260510044434 | 62 | 13 | 5.0 | 15.0 | 0.00 | 0.00 | 0.00 | 78 | 911.0 |
| 20260510043933 | 62 | 3 | 8.0 | 15.0 | 0.00 | 0.00 | 0.00 | 78 | 909.7 |
| 20260510043432 | 62 | 44 | 5.0 | 13.0 | 0.00 | 0.00 | 0.00 | 78 | 910.7 |
| 20260510042931 | 62 | 50 | 6.0 | 13.0 | 0.00 | 0.00 | 0.00 | 78 | 909.9 |
| 20260510042430 | 62 | 64 | 6.0 | 13.0 | 0.00 | 0.00 | 0.00 | 78 | 909.8 |
| 20260510041928 | 62 | 56 | 7.0 | 13.0 | 0.00 | 0.00 | 0.00 | 78 | 908.1 |
| 20260510040913 | 63 | 57 | 7.0 | 18.0 | 0.00 | 0.00 | 0.00 | 77 | 929.8 |
| 20260510040412 | 63 | 67 | 7.0 | 18.0 | 0.00 | 0.00 | 0.00 | 77 | 930.6 |
| 20260510034842 | 63 | 30 | 7.0 | 14.0 | 0.00 | 0.00 | 0.12 | 77 | 910.3 |
| 20260510034341 | 63 | 323 | 7.0 | 13.0 | 0.00 | 0.00 | 0.12 | 76 | 904.7 |
| 20260510033841 | 63 | 42 | 7.0 | 19.0 | 0.00 | 0.00 | 0.12 | 76 | 924.2 |
| 20260510032824 | 63 | 52 | 8.0 | 13.0 | 0.00 | 0.00 | 0.12 | 76 | 932.2 |
| 20260510032323 | 63 | 53 | 6.0 | 15.0 | 0.00 | 0.00 | 0.12 | 76 | 931.5 |
| 20260510031822 | 63 | 46 | 9.0 | 15.0 | 0.00 | 0.00 | 0.12 | 76 | 928.7 |
| 20260510030807 | 63 | 48 | 5.0 | 14.0 | 0.00 | 0.00 | 0.12 | 76 | 928.6 |
| 20260510025752 | 63 | 48 | 6.0 | 14.0 | 0.00 | 0.00 | 0.12 | 75 | 924.9 |
| 20260510025251 | 63 | 16 | 6.0 | 13.0 | 0.00 | 0.00 | 0.12 | 75 | 948.8 |
| 20260510024750 | 63 | 54 | 7.0 | 12.0 | 0.00 | 0.00 | 0.12 | 75 | 963.1 |
| 20260510024250 | 64 | 40 | 5.0 | 12.0 | 0.00 | 0.00 | 0.12 | 75 | 964.0 |
| 20260510023749 | 64 | 36 | 8.0 | 12.0 | 0.00 | 0.00 | 0.12 | 75 | 969.5 |
| 20260510023248 | 64 | 41 | 5.0 | 12.0 | 0.00 | 0.00 | 0.12 | 74 | 974.0 |
| 20260510022747 | 64 | 44 | 4.0 | 12.0 | 0.00 | 0.00 | 0.12 | 74 | 974.1 |
| 20260510022246 | 64 | 46 | 6.0 | 12.0 | 0.00 | 0.00 | 0.12 | 74 | 978.9 |
| 20260510021746 | 64 | 34 | 6.0 | 12.0 | 0.00 | 0.00 | 0.12 | 73 | 982.5 |
| 20260510021245 | 64 | 49 | 7.0 | 12.0 | 0.00 | 0.00 | 0.12 | 73 | 973.9 |
| 20260510020744 | 64 | 349 | 5.0 | 12.0 | 0.00 | 0.00 | 0.12 | 73 | 978.1 |
| 20260510015728 | 64 | 46 | 5.0 | 12.0 | 0.00 | 0.00 | 0.12 | 72 | 964.5 |
| 20260510015228 | 65 | 322 | 7.0 | 12.0 | 0.00 | 0.00 | 0.12 | 72 | 970.4 |
| 20260510014727 | 65 | 54 | 4.0 | 12.0 | 0.00 | 0.00 | 0.12 | 72 | 971.8 |
| 20260510014227 | 65 | 47 | 7.0 | 12.0 | 0.00 | 0.00 | 0.12 | 71 | 972.6 |
| 20260510013727 | 65 | 45 | 6.0 | 12.0 | 0.00 | 0.00 | 0.12 | 71 | 957.8 |
| 20260510013226 | 65 | 53 | 6.0 | 12.0 | 0.00 | 0.00 | 0.12 | 70 | 966.2 |
| 20260510012725 | 65 | 43 | 6.0 | 12.0 | 0.00 | 0.00 | 0.12 | 70 | 991.9 |
| 20260510012224 | 66 | 35 | 5.0 | 12.0 | 0.00 | 0.00 | 0.12 | 70 | 994.3 |
| 20260510011726 | 66 | 29 | 6.0 | 12.0 | 0.00 | 0.00 | 0.12 | 69 | 991.2 |
| 20260510011222 | 66 | 21 | 5.0 | 12.0 | 0.00 | 0.00 | 0.12 | 69 | 989.4 |
| 20260510010206 | 66 | 29 | 5.0 | 13.0 | 0.00 | 0.00 | 0.12 | 69 | 991.4 |
| 20260510005706 | 66 | 31 | 4.0 | 13.0 | 0.00 | 0.00 | 0.12 | 68 | 991.2 |
| 20260510005205 | 66 | 25 | 5.0 | 13.0 | 0.00 | 0.00 | 0.12 | 68 | 995.3 |
| 20260510004704 | 66 | 7 | 4.0 | 13.0 | 0.00 | 0.00 | 0.12 | 67 | 983.5 |
| 20260510004204 | 66 | 346 | 5.0 | 13.0 | 0.00 | 0.00 | 0.12 | 67 | 985.9 |
| 20260510003704 | 66 | 26 | 4.0 | 13.0 | 0.00 | 0.00 | 0.12 | 67 | 966.3 |
| 20260510003204 | 67 | 16 | 4.0 | 13.0 | 0.00 | 0.00 | 0.12 | 66 | 966.2 |
| 20260510002704 | 67 | 10 | 4.0 | 13.0 | 0.00 | 0.00 | 0.12 | 66 | 969.9 |
| 20260510002204 | 67 | 26 | 4.0 | 13.0 | 0.00 | 0.00 | 0.12 | 65 | 907.2 |
| 20260510001704 | 67 | 350 | 4.0 | 13.0 | 0.00 | 0.00 | 0.12 | 65 | 920.5 |
| 20260510001203 | 67 | 341 | 5.0 | 13.0 | 0.00 | 0.00 | 0.12 | 65 | 943.4 |
| 20260510000702 | 68 | 322 | 5.0 | 13.0 | 0.00 | 0.00 | 0.12 | 64 | 952.7 |
| 20260510000201 | 68 | 307 | 6.0 | 13.0 | 0.00 | 0.00 | 0.12 | 64 | 936.7 |
| 20260509235700 | 68 | 288 | 4.0 | 13.0 | 0.00 | 0.00 | 0.12 | 63 | 942.5 |
| 20260509234643 | 68 | 282 | 5.0 | 13.0 | 0.00 | 0.00 | 0.12 | 63 | 946.0 |
| 20260509233627 | 69 | 237 | 6.0 | 13.0 | 0.00 | 0.00 | 0.12 | 62 | 926.2 |
| 20260509233127 | 69 | 243 | 7.0 | 13.0 | 0.00 | 0.00 | 0.12 | 61 | 951.9 |
| 20260509232626 | 69 | 238 | 5.0 | 12.0 | 0.00 | 0.00 | 0.12 | 61 | 951.0 |
| 20260509231056 | 69 | 243 | 5.0 | 12.0 | 0.00 | 0.00 | 0.12 | 60 | 939.9 |
| 20260509230039 | 69 | 238 | 6.0 | 15.0 | 0.00 | 0.00 | 0.12 | 59 | 936.5 |
| 20260509225539 | 70 | 251 | 7.0 | 15.0 | 0.00 | 0.00 | 0.12 | 59 | 952.6 |
| 20260509225039 | 70 | 242 | 7.0 | 15.0 | 0.00 | 0.00 | 0.12 | 59 | 934.9 |
| 20260509224539 | 70 | 243 | 4.0 | 13.0 | 0.00 | 0.00 | 0.12 | 59 | 936.6 |
| 20260509224038 | 70 | 248 | 6.0 | 14.0 | 0.00 | 0.00 | 0.12 | 59 | 924.9 |
| 20260509223538 | 69 | 237 | 8.0 | 16.0 | 0.00 | 0.00 | 0.12 | 59 | 931.5 |
| 20260509223038 | 70 | 222 | 6.0 | 16.0 | 0.00 | 0.00 | 0.12 | 59 | 943.9 |
| 20260509222538 | 70 | 228 | 9.0 | 15.0 | 0.00 | 0.00 | 0.12 | 59 | 938.1 |
| 20260509221007 | 70 | 245 | 4.0 | 14.0 | 0.00 | 0.00 | 0.12 | 60 | 941.1 |
| 20260509215951 | 69 | 230 | 8.0 | 14.0 | 0.00 | 0.00 | 0.12 | 60 | 945.9 |
| 20260509214935 | 69 | 240 | 6.0 | 12.0 | 0.00 | 0.00 | 0.12 | 60 | 939.8 |
| 20260509214435 | 69 | 228 | 6.0 | 13.0 | 0.00 | 0.00 | 0.12 | 61 | 941.2 |
| 20260509213418 | 70 | 217 | 6.0 | 13.0 | 0.00 | 0.00 | 0.12 | 59 | 950.2 |
| 20260509212917 | 70 | 275 | 5.0 | 13.0 | 0.00 | 0.00 | 0.12 | 60 | 950.8 |
| 20260509212417 | 69 | 229 | 5.0 | 13.0 | 0.00 | 0.00 | 0.12 | 61 | 937.3 |
| 20260509211401 | 69 | 238 | 7.0 | 13.0 | 0.00 | 0.00 | 0.12 | 62 | 940.1 |
| 20260509210900 | 69 | 240 | 8.0 | 13.0 | 0.00 | 0.00 | 0.12 | 61 | 939.9 |
| 20260509210400 | 69 | 237 | 5.0 | 12.0 | 0.00 | 0.00 | 0.12 | 63 | 935.0 |
| 20260509205859 | 69 | 254 | 3.0 | 12.0 | 0.00 | 0.00 | 0.12 | 61 | 933.9 |
| 20260509204852 | 69 | 248 | 4.0 | 15.0 | 0.00 | 0.00 | 0.12 | 62 | 946.0 |
| 20260509204351 | 68 | 246 | 9.0 | 15.0 | 0.00 | 0.00 | 0.12 | 61 | 944.7 |
| 20260509203850 | 68 | 260 | 6.0 | 18.0 | 0.00 | 0.00 | 0.12 | 60 | 937.6 |
| 20260509202319 | 68 | 255 | 5.0 | 13.0 | 0.00 | 0.00 | 0.12 | 62 | 940.2 |
| 20260509201819 | 68 | 225 | 5.0 | 12.0 | 0.00 | 0.00 | 0.12 | 63 | 939.5 |
| 20260509201319 | 67 | 257 | 9.0 | 12.0 | 0.00 | 0.00 | 0.12 | 62 | 939.0 |
| 20260509200819 | 67 | 257 | 8.0 | 12.0 | 0.00 | 0.00 | 0.12 | 63 | 942.1 |
| 20260509200319 | 68 | 282 | 5.0 | 12.0 | 0.00 | 0.00 | 0.12 | 62 | 936.6 |
| 20260509195306 | 68 | 257 | 5.0 | 12.0 | 0.00 | 0.00 | 0.12 | 63 | 939.2 |
| 20260509194803 | 68 | 252 | 6.0 | 12.0 | 0.00 | 0.00 | 0.12 | 64 | 940.5 |
| 20260509194303 | 66 | 280 | 5.0 | 13.0 | 0.00 | 0.00 | 0.12 | 66 | 949.7 |
| 20260509193803 | 66 | 319 | 5.0 | 13.0 | 0.00 | 0.00 | 0.12 | 67 | 960.2 |
| 20260509193303 | 66 | 257 | 7.0 | 13.0 | 0.00 | 0.00 | 0.12 | 66 | 961.0 |
| 20260509192803 | 66 | 270 | 6.0 | 13.0 | 0.00 | 0.00 | 0.12 | 66 | 959.0 |
| 20260509192306 | 67 | 235 | 6.0 | 13.0 | 0.00 | 0.00 | 0.12 | 66 | 962.9 |
| 20260509191802 | 67 | 269 | 4.0 | 13.0 | 0.00 | 0.00 | 0.12 | 63 | 937.1 |
| 20260509191302 | 67 | 240 | 4.0 | 13.0 | 0.00 | 0.00 | 0.12 | 68 | 968.1 |
| 20260509190802 | 66 | 222 | 4.0 | 13.0 | 0.00 | 0.00 | 0.12 | 68 | 968.4 |
| 20260509190301 | 66 | 226 | 4.0 | 13.0 | 0.00 | 0.00 | 0.12 | 68 | 967.6 |
| 20260509185801 | 65 | 253 | 5.0 | 16.0 | 0.00 | 0.00 | 0.12 | 66 | 966.2 |
| 20260509184745 | 66 | 247 | 9.0 | 14.0 | 0.00 | 0.00 | 0.12 | 66 | 964.9 |
| 20260509184244 | 66 | 241 | 8.0 | 13.0 | 0.00 | 0.00 | 0.12 | 65 | 962.1 |
| 20260509183229 | 66 | 282 | 4.0 | 13.0 | 0.00 | 0.00 | 0.12 | 65 | 976.2 |
| 20260509182728 | 65 | 243 | 6.0 | 14.0 | 0.00 | 0.00 | 0.12 | 66 | 983.7 |
| 20260509182227 | 65 | 272 | 8.0 | 14.0 | 0.00 | 0.00 | 0.12 | 65 | 991.6 |
| 20260509181210 | 65 | 263 | 10.0 | 16.0 | 0.00 | 0.00 | 0.12 | 64 | 992.1 |
| 20260509180710 | 64 | 242 | 7.0 | 15.0 | 0.00 | 0.00 | 0.12 | 65 | 992.0 |
| 20260509180209 | 64 | 224 | 10.0 | 15.0 | 0.00 | 0.00 | 0.12 | 64 | 992.2 |
| 20260509175153 | 64 | 206 | 3.0 | 11.0 | 0.00 | 0.00 | 0.12 | 67 | 992.8 |
| 20260509174652 | 63 | 249 | 4.0 | 11.0 | 0.00 | 0.00 | 0.12 | 67 | 992.7 |
| 20260509174151 | 63 | 275 | 4.0 | 11.0 | 0.00 | 0.00 | 0.12 | 68 | 992.7 |
| 20260509173135 | 64 | 250 | 4.0 | 11.0 | 0.00 | 0.00 | 0.12 | 68 | 992.9 |
| 20260509172634 | 64 | 270 | 4.0 | 11.0 | 0.00 | 0.00 | 0.12 | 69 | 995.8 |
| 20260509172133 | 63 | 352 | 2.0 | 11.0 | 0.00 | 0.00 | 0.12 | 72 | 1001.6 |
| 20260509171633 | 62 | 211 | 4.0 | 14.0 | 0.00 | 0.00 | 0.12 | 74 | 1003.5 |
| 20260509171132 | 62 | 1 | 6.0 | 14.0 | 0.00 | 0.00 | 0.12 | 73 | 1003.2 |
| 20260509170115 | 61 | 199 | 5.0 | 15.0 | 0.00 | 0.00 | 0.12 | 76 | 1003.7 |
| 20260509165059 | 60 | 66 | 4.0 | 13.0 | 0.00 | 0.00 | 0.12 | 81 | 1003.2 |
| 20260509164559 | 60 | 207 | 6.0 | 13.0 | 0.00 | 0.00 | 0.12 | 81 | 1003.8 |
| 20260509164058 | 60 | 98 | 5.0 | 13.0 | 0.00 | 0.00 | 0.12 | 84 | 1003.4 |
| 20260509163558 | 59 | 215 | 7.0 | 13.0 | 0.00 | 0.00 | 0.12 | 83 | 1003.4 |
| 20260509163057 | 59 | 23 | 4.0 | 13.0 | 0.00 | 0.00 | 0.12 | 86 | 1003.0 |
| 20260509162557 | 58 | 204 | 6.0 | 13.0 | 0.00 | 0.00 | 0.12 | 89 | 1002.9 |
| 20260509162056 | 57 | 202 | 6.0 | 14.0 | 0.00 | 0.00 | 0.12 | 89 | 1004.9 |
| 20260509161555 | 57 | 206 | 5.0 | 14.0 | 0.00 | 0.00 | 0.12 | 90 | 1005.3 |
| 20260509161054 | 57 | 213 | 6.0 | 13.0 | 0.00 | 0.00 | 0.12 | 91 | 1005.5 |
| 20260509160553 | 57 | 213 | 7.0 | 13.0 | 0.00 | 0.00 | 0.12 | 92 | 1005.3 |
| 20260509155536 | 56 | 215 | 5.0 | 13.0 | 0.00 | 0.00 | 0.12 | 94 | 1005.6 |
| 20260509155035 | 56 | 207 | 5.0 | 13.0 | 0.00 | 0.00 | 0.12 | 94 | 1005.5 |
| 20260509154534 | 56 | 208 | 5.0 | 14.0 | 0.00 | 0.00 | 0.12 | 94 | 1005.1 |
| 20260509154034 | 56 | 224 | 6.0 | 14.0 | 0.01 | 0.00 | 0.12 | 94 | 1005.6 |
| 20260509153534 | 55 | 45 | 5.0 | 14.0 | 0.01 | 0.00 | 0.12 | 96 | 1005.6 |
| 20260509152518 | 55 | 216 | 5.0 | 14.0 | 0.01 | 0.00 | 0.12 | 96 | 1005.4 |
| 20260509152018 | 55 | 283 | 5.0 | 14.0 | 0.01 | 0.00 | 0.12 | 96 | 1005.0 |
| 20260509151518 | 55 | 333 | 4.0 | 14.0 | 0.01 | 0.00 | 0.12 | 96 | 1005.0 |
| 20260509150503 | 55 | 223 | 5.0 | 14.0 | 0.01 | 0.00 | 0.12 | 97 | 1004.9 |
| 20260509150003 | 55 | 223 | 5.0 | 14.0 | 0.01 | 0.00 | 0.12 | 97 | 1005.0 |
| 20260509145503 | 54 | 202 | 5.0 | 14.0 | 0.01 | 0.00 | 0.12 | 97 | 1004.9 |
| 20260509145003 | 54 | 218 | 4.0 | 14.0 | 0.01 | 0.00 | 0.12 | 98 | 1005.4 |
| 20260509144503 | 54 | 234 | 4.0 | 14.0 | 0.01 | 0.00 | 0.12 | 98 | 1004.8 |
| 20260509144003 | 55 | 205 | 4.0 | 14.0 | 0.00 | 0.00 | 0.11 | 98 | 1005.3 |
| 20260509143503 | 54 | 231 | 4.0 | 14.0 | 0.00 | 0.00 | 0.11 | 99 | 1005.0 |
| 20260509143003 | 54 | 199 | 3.0 | 14.0 | 0.00 | 0.00 | 0.11 | 99 | 1005.1 |
| 20260509141947 | 54 | 199 | 3.0 | 14.0 | 0.00 | 0.00 | 0.11 | 99 | 1005.1 |
| 20260509141446 | 54 | 199 | 4.0 | 14.0 | 0.00 | 0.00 | 0.11 | 99 | 1004.9 |
| 20260509140946 | 55 | 199 | 3.0 | 14.0 | 0.00 | 0.00 | 0.11 | 99 | 1005.3 |
| 20260509140446 | 55 | 199 | 3.0 | 14.0 | 0.00 | 0.00 | 0.11 | 99 | 1004.9 |
| 20260509135945 | 54 | 199 | 3.0 | 14.0 | 0.00 | 0.00 | 0.11 | 99 | 1005.4 |
| 20260509135445 | 54 | 199 | 2.0 | 14.0 | 0.00 | 0.00 | 0.11 | 99 | 1005.6 |
| 20260509134944 | 54 | 199 | 3.0 | 14.0 | 0.00 | 0.00 | 0.11 | 99 | 1005.9 |
| 20260509134443 | 53 | 201 | 2.0 | 14.0 | 0.00 | 0.00 | 0.11 | 99 | 1005.9 |
| 20260509133426 | 53 | 190 | 3.0 | 14.0 | 0.00 | 0.00 | 0.11 | 99 | 1005.7 |
| 20260509132925 | 53 | 208 | 3.0 | 14.0 | 0.00 | 0.00 | 0.11 | 98 | 1005.7 |
| 20260509132424 | 54 | 199 | 3.0 | 14.0 | 0.00 | 0.00 | 0.11 | 98 | 1005.7 |
| 20260509131408 | 54 | 199 | 2.0 | 14.0 | 0.00 | 0.00 | 0.11 | 99 | 1005.5 |
| 20260509130907 | 54 | 199 | 3.0 | 14.0 | 0.00 | 0.00 | 0.11 | 99 | 1005.6 |